Location: Buckland
(65.9785°N, 161.1281°W)
Time: 03:05:39
(UTC+00:00)

Transit 4A - Pass Details

Date: 26 November 2020
Orbit: 864 x 980 km, 66.8° (Epoch: 26 January)

Event Time Altitude Azimuth Distance (km) Brightness Sun altitude
Rises 23:04:18 0° 262° (W) 3,678 11.2 2.6°
Reaches altitude 10° 23:06:52 10° 264° (W) 2,737 10.6 2.6°
Maximum altitude 23:13:19 84° 353° (N) 995 8.2 2.5°
Drops below altitude 10° 23:19:45 10° 83° (E) 2,727 10.2 2.4°
Sets 23:22:18 0° 84° (E) 3,665 10.8 2.3°
